Glens Falls, NY

10:53 AM EST on November 13, 2019 (GMT -0500)
Bennett Memorial

Weather History for KGFL - September, 2019

Change the Weather History Date:

Thursday, September 12, 2019

  Actual Average Record
Temperature  
Mean Temperature 55 °F 60 °F  
Max Temperature 67 °F 72 °F 88 °F (1961)
Min Temperature 43 °F 48 °F 33 °F (2006)
Degree Days  
Heating Degree Days 10 6  
Month to date heating degree days 61 53  
Since 1 July heating degree days 89 119  
Cooling Degree Days 0 1  
Month to date cooling degree days 12 17  
Year to date cooling degree days 407 344  
Growing Degree Days 6 (Base 50)    
Moisture  
Dew Point 49 °F    
Average Humidity 71    
Maximum Humidity 93    
Minimum Humidity 48    
Precipitation  
Precipitation 0.07 in 0.11 in 3.02 in (1960)
Month to date precipitation 1.06 1.25  
Year to date precipitation 29.85 27.06  
Sea Level Pressure  
Sea Level Pressure 30.20 in    
Wind  
Wind Speed 8 mph (NNE)    
Max Wind Speed 17 mph    
Max Gust Speed 23 mph    
Visibility 10 miles    
Events Rain    
T = Trace of Precipitation, MM = Missing Value Source: NWS Daily Summary

Daily Weather History Graph

Daily Weather History Graph

Search for Another Location

Airport or City:

Astronomy

Sep. 12, 2019 Rise Set
Actual Time 6:30 AM EDT 7:10 PM EDT
Civil Twilight 6:01 AM EDT 7:39 PM EDT
Nautical Twilight 5:27 AM EDT 8:13 PM EDT
Astronomical Twilight 4:51 AM EDT 8:48 PM EDT
Moon 6:57 PM EDT (9/12) 4:42 AM EDT (9/12)
Length of Visible Light 13h 37m
Length of Day
12h 40m
Waxing Gibbous, 98% of the Moon is Illuminated
Sep 12
Waxing Gibbous
Sep 14
Full
Sep 21
Last Quarter
Sep 28
New
Oct 5
First Quarter

Hourly Weather History & Observations

Time (EDT) Temp. Windchill Dew Point Humidity Pressure Visibility Wind Dir Wind Speed Gust Speed Precip Events Conditions
12:53 AM 64.9 °F - 57.0 °F 75% 30.06 in 10.0 mi NE 10.4 mph - N/A   Overcast
1:53 AM 64.0 °F - 55.0 °F 73% 30.06 in 10.0 mi NE 11.5 mph - N/A   Overcast
2:53 AM 62.1 °F - 54.0 °F 75% 30.06 in 10.0 mi NE 10.4 mph - N/A   Overcast
3:53 AM 61.0 °F - 51.1 °F 70% 30.08 in 10.0 mi NNE 8.1 mph - N/A   Overcast
4:53 AM 60.1 °F - 48.9 °F 67% 30.09 in 10.0 mi NE 8.1 mph - N/A   Overcast
5:53 AM 59.0 °F - 48.0 °F 67% 30.11 in 10.0 mi NNE 13.8 mph - N/A   Overcast
6:53 AM 59.0 °F - 48.9 °F 69% 30.14 in 10.0 mi NNE 6.9 mph - N/A   Overcast
7:53 AM 57.9 °F - 50.0 °F 75% 30.16 in 10.0 mi NNE 9.2 mph - 0.00 in   Overcast
8:07 AM 57.9 °F - 50.0 °F 75% 30.16 in 10.0 mi North 9.2 mph - 0.00 in Rain Light Rain
8:53 AM 57.0 °F - 52.0 °F 83% 30.17 in 10.0 mi North 5.8 mph - 0.01 in Rain Light Rain
9:53 AM 57.9 °F - 53.1 °F 84% 30.19 in 10.0 mi NNE 5.8 mph - 0.00 in Rain Light Rain
10:53 AM 57.0 °F - 54.0 °F 89% 30.20 in 6.0 mi NNE 5.8 mph - 0.05 in Rain Light Rain
11:53 AM 57.9 °F - 54.0 °F 87% 30.20 in 10.0 mi North 8.1 mph - 0.01 in Rain Light Rain
12:53 PM 60.1 °F - 52.0 °F 75% 30.20 in 10.0 mi North 12.7 mph - 0.00 in   Mostly Cloudy
1:53 PM 64.9 °F - 50.0 °F 58% 30.19 in 10.0 mi NNE 12.7 mph - N/A   Scattered Clouds
2:53 PM 64.0 °F - 48.0 °F 56% 30.20 in 10.0 mi NNE 12.7 mph - N/A   Mostly Cloudy
3:53 PM 64.9 °F - 46.9 °F 52% 30.21 in 10.0 mi NE 11.5 mph - N/A   Scattered Clouds
4:53 PM 66.0 °F - 46.9 °F 50% 30.23 in 10.0 mi NE 12.7 mph - N/A   Mostly Cloudy
5:53 PM 64.0 °F - 46.0 °F 52% 30.26 in 10.0 mi NNE 12.7 mph - N/A   Clear
6:53 PM 61.0 °F - 46.0 °F 58% 30.28 in 10.0 mi NNW 4.6 mph - N/A   Clear
7:53 PM 55.9 °F - 45.0 °F 67% 30.30 in 10.0 mi North 5.8 mph - N/A   Clear
8:53 PM 55.9 °F - 44.1 °F 64% 30.32 in 10.0 mi North 6.9 mph - N/A   Clear
9:53 PM 54.0 °F - 45.0 °F 72% 30.34 in 10.0 mi North 4.6 mph - N/A   Clear
10:53 PM 46.0 °F 44.8 °F 45.0 °F 96% 30.35 in 10.0 mi WSW 3.5 mph - N/A   Clear
11:53 PM 45.0 °F - 43.0 °F 93% 30.36 in 8.0 mi Calm Calm - N/A   Clear